Regional Weather Roundup
Issued by NWS Newport/Morehead, NC

Home | Current Version | Previous Version | Text Only | Print | Product List | Glossary On
Versions: 1 2 3 4 5 6 7 8 9 10 11 12 13 14 15 16 17 18 19 20 21 22 23 24 25 26 27 28 29 30 31 32 33 34 35 36 37 38 39 40 41 42 43 44 45 46 47 48 49 50
000
ASUS42 KMHX 041225
RWRMHX
WEATHER ROUNDUP FOR EASTERN NORTH CAROLINA
NATIONAL WEATHER SERVICE NEWPORT/MOREHEAD CITY NC
800 AM EDT FRI SEP 04 2015

NOTE: "FAIR" INDICATES FEW OR NO CLOUDS BELOW 12,000 FEET
WITH NO SIGNIFICANT WEATHER AND/OR OBSTRUCTIONS TO VISIBILITY

NCZ015>017-031-032-045>047-102-103-041300-
NORTH COAST

CITY           SKY/WX    TMP DP  RH WIND       PRES   REMARKS
EDENTON        SUNNY     75  71  89 CALM      29.95R FOG
ELIZABETH CITY SUNNY     75  73  93 CALM      29.94R FOG
KITTY HAWK     SUNNY     79  76  91 CALM      29.94R
MANTEO         SUNNY     78  74  87 N3        29.95R

$$

NCZ045>047-081-094-103-104-041300-
CENTRAL COAST

CITY           SKY/WX    TMP DP  RH WIND       PRES   REMARKS
FRISCO         SUNNY     80  72  76 N3        29.94R
SWANQUARTER      N/A     75 N/A N/A NW2       29.91S

$$

NCZ095-097-098-100-101-041300-
SOUTHERN COAST

CITY           SKY/WX    TMP DP  RH WIND       PRES   REMARKS
BEAUFORT       SUNNY     77  76  96 NW6       29.95R
CEDAR ISLAND     N/A     81 N/A N/A NW8       29.97S
JACKSONVILLE   SUNNY     73  70  90 CALM      29.95R
PINEY ISLAND   SUNNY    N/A N/A N/A NW3       29.94R
WILMINGTON     SUNNY     74  71  91 CALM      29.95R


$$

NCZ011>013-027>030-043-044-078>080-089-090>093-098-041300-
COASTAL PLAIN

CITY           SKY/WX    TMP DP  RH WIND       PRES   REMARKS
AHOSKIE        SUNNY     72  71  94 CALM      29.96R FOG
CLINTON        SUNNY     74  73  96 CALM      29.97R
ELIZABETHTOWN  SUNNY     73  73  99 CALM      29.97R
GOLDSBORO      SUNNY     73  71  96 CALM      29.95R
GREENVILLE     SUNNY     72  72 100 CALM      29.98R FOG
HAVELOCK       SUNNY     75  72  90 CALM      29.96R
KENANSVILLE      N/A     73  72  96 CALM      29.98R
KINSTON        SUNNY     72  70  94 CALM      29.96R FOG
NEW BERN       SUNNY     74  71  91 CALM      29.97R
RICHLANDS      SUNNY     73  66  78 CALM      29.96R
ROCKY MOUNT    SUNNY     74  72  93 CALM      29.97R FOG
WASHINGTON     MOSUNNY   73  70  89 CALM      29.96R
WHITEVILLE     SUNNY     71  69  92 CALM      29.95R

$$

AMZ130-135-150-152-154-156-158-170-250-252-270-ANZ085-086-088-633-658-670-041300-
MARINE OBSERVATIONS

STATION/POSITION TIME  TEMP    WIND        PRES    WAVE   SWELL
                       AIR SEA DIR/SP/G            HT/PER HT/PER
                 (UTC) (F)     (DEG/KT/KT) (MB)    (FT/S) (FT/S)
CHESAPEAKE LIGHT 1200   79     340/  9/ 10 1014.5
64 E VA BEACH    1150   79 79  330/  4/  4 1013.0    1/12   2/12
DUCK             1200   78 80  310/  4/  5 1013.0
2 E DUCK         1111      80                N/A     1/12
OREGON INLET     1200   79 82  290/  4/  6 1013.7
13E OREGON INLT  1200      81                N/A     1/13
HATTERAS CG      1200   81 83  320/  9/ 10 1013.5
DIAMOND BUOY     1150   81 85  340/  8/ 10 1013.7    1/13   2/13
CAPE LOOKOUT     1200   79     340/  4/  5 1013.8
BEAUFORT LAB     1200   78 82  340/  3/  6 1013.5
30 SE NEW RVR IN 1108   80 81  360/  6/  8 1013.7
30 SE NEW RVR IN 1125      81                N/A     1/13
27 SE WRIGHTSVLE 1200   77 82   10/  6/  8   N/A
5 SE WRIGHTSVLE  1108   78 82  330/  8/ 10 1013.8
225 S CAPE HAT   1150   82 84  300/  8/  8 1013.4    2/ 5   2/ 5
41 SE CHARLESTON 1150   82 83  330/ 10/ 12 1013.4    1/12   2/12

$$



USA.gov is the U.S. government's official web portal to all federal, state and local government web resources and services.